Flag for Canada Weather past 2 weeks in Burlington, Ontario, Canada

Now
65 °F

Mild.


Feels Like: 65 °F
Forecast: 62 / 76 °F
Wind: 2 mph from Southwest

Location: Burlington Piers

Current Time: Jul 5, 2015 at 8:57:18 AM

Latest Report: Jul 5, 2015 at 8:00 AM


Visibility: N/A

Pressure: 30.11 "Hg

Humidity: 75%

Dew point: 57 °F

Location of BurlingtonLocation

Historic Weather in Burlington — Graph

°F

Burlington temperature yesterday

Maximum temperature yesterday: 78 °F (at 8:00 PM)
Minimum temperature yesterday: 60 °F (at 6:00 AM)
Average temperature yesterday: 67 °F

Past Weeks' High & Low Weather Summary

 TemperatureHumidityPressure
High79 °F (Jun 21, 4:00 PM)99% (Jun 28, 3:00 PM)30.12 "Hg (Jun 28, 3:00 PM)
Low54 °F (Jun 28, 7:00 AM)30% (Jun 24, 4:00 PM)29.63 "Hg (Jun 23, 5:00 AM)
Average65 °F73%29.91 "Hg
* Reported Jun 20 8:00 AM — Jul 5 8:00 AM, Burlington, Weather by CustomWeather, © 2015

Note: Actual official high and low records may vary slightly from our data, if they occured in-between our weather recording intervals... More about our weather records

Advertising

Burlington weather history for previous 24 hours

 ConditionsComfort  
Time TempWeatherWind HumidityBarometerVisibility
8:00 AM
Sun, Jul 5
65 °FMild.2 mph75%30.11 "HgN/A
7:00 AM64 °FMild.3 mph77%30.09 "HgN/A
6:00 AM64 °FMild.3 mph80%30.07 "HgN/A
5:00 AM64 °FMild.7 mph79%30.06 "HgN/A
4:00 AM65 °FMild.5 mph75%30.05 "HgN/A
3:00 AM67 °FMild.5 mph71%30.05 "HgN/A
2:00 AM68 °FMild.3 mph67%30.04 "HgN/A
1:00 AM70 °FMild.6 mph64%30.03 "HgN/A
12:00 AM71 °FMild.5 mph64%30.01 "HgN/A
11:00 PM
Sat, Jul 4
72 °FMild.5 mph59%29.99 "HgN/A
10:00 PM73 °FMild.3 mph61%29.97 "HgN/A
9:00 PM74 °FMild.3 mph47%29.95 "HgN/A
8:00 PM78 °FPleasantly warm.2 mph38%29.93 "HgN/A
7:00 PM78 °FWarm.5 mph48%29.93 "HgN/A
6:00 PM74 °FMild.5 mph51%29.93 "HgN/A
5:00 PM71 °FMild.8 mph57%29.94 "HgN/A
4:00 PM69 °FMild.8 mph60%29.94 "HgN/A
3:00 PM68 °FMild.10 mph56%29.94 "HgN/A
2:00 PM67 °FMild.10 mph59%29.94 "HgN/A
1:00 PM66 °FMild.8 mph57%29.95 "HgN/A
12:00 PM66 °FMild.8 mph51%29.95 "HgN/A
11:00 AM66 °FMild.7 mph61%29.95 "HgN/A
10:00 AM67 °FMild.2 mph57%29.94 "HgN/A
9:00 AM64 °FMild.3 mph59%29.94 "HgN/A
8:00 AM61 °FCool.5 mph62%29.93 "HgN/A
Weather by CustomWeather, © 2015

See weather overviewHow to use our weather pages